Find Starlink 32647

NORAD ID: 62200 Int'l Des: 2024-229 Owner: SPXS Country: US Constellation: starlink operational
LEOCIRCULAR

リアルタイム位置

3D地球を読み込み中...

Starlink 32647について

説明を読み込み中...

次回通過

Passes for default location (London). Set your location on the main map for personalized predictions.

高度履歴

Loading altitude history...

軌道要素

1 62200U 24229J 26121.28246131 .00018996 00000-0 69746-3 0 9996
2 62200 42.9947 333.7952 0000623 356.4086 3.6761 15.27608142 78602
Epoch: May 1, 2026 • Age: 15 hours

現在のステータス

高度 485.3 km
速度 7.62 km/s
衛星直下点 -11.74°S, 23.18°W
打ち上げ日 Dec 4, 2024
運用期間 1.4 years
タイプ internet

技術仕様

分類 Payload
質量 730.00 kg
乾燥質量 700.00 kg
総質量 730.00 kg
長さ 0.30 m
直径 4.10 m
スパン 29.00 m
形状 Box + pan
製造者 SPXS
バスタイプ Starlink V2M
フェーズステータス In Orbit
所有者/国 SPXS/US

Most Searched